Regional Weather Roundup
Issued by NWS

Home | Current Version | Previous Version | Text Only | Print | Product List | Glossary Off
Versions: 1 2 3 4 5 6 7 8 9 10 11 12 13 14 15 16 17 18 19 20 21 22 23 24 25 26 27 28 29 30 31 32 33 34 35 36 37 38 39 40 41 42 43 44 45 46 47 48 49 50

000
ASUS43 KFSD 260810
RWRSD

WEATHER ROUNDUP FOR SOUTH DAKOTA
NATIONAL WEATHER SERVICE SIOUX FALLS SD
300 AM CDT MON JUN 26 2017

NOTE: "FAIR" INDICATES FEW OR NO CLOUDS BELOW 12,000 FEET WITH NO
SIGNIFICANT WEATHER AND/OR OBSTRUCTIONS TO VISIBILITY.


SDZ001>005-009-010-012>017-260900-
NORTHWEST AND NORTH CENTRAL SOUTH DAKOTA

CITY           SKY/WX    TMP DP  RH WIND       PRES   REMARKS
BUFFALO          N/A     53  40  61 CALM      30.19S
FAITH            N/A     53  42  66 SE12      30.23S
MOBRIDGE       CLEAR     47  41  80 E6        30.22S
$$

SDZ012>016-024>037-041>051-057-063-072>074-260900-
SOUTHWEST AND SOUTH CENTRAL SOUTH DAKOTA

CITY           SKY/WX    TMP DP  RH WIND       PRES   REMARKS
RAPID CTY ARPT PTCLDY    49  36  61 S3        30.27S
PIERRE         CLEAR     48  44  86 NE10      30.21S
CUSTER         CLEAR     48  33  56 NE5       30.33F
ELLSWORTH AFB  CLEAR     53  37  54 SW3       30.26F
PHILIP         PTCLDY    46  41  82 CALM      30.23S
PINE RIDGE     CLEAR     48  42  80 E8        30.24S
SPEARFISH      FAIR      50  37  62 E7        30.27S
WINNER         FAIR      52  46  80 E7        30.21R
$$

SDZ004>011-016>023-039-040-260900-
NORTHEAST SOUTH DAKOTA

CITY           SKY/WX    TMP DP  RH WIND       PRES   REMARKS
ABERDEEN       CLEAR     45  43  93 N3        30.23S
WATERTOWN      CLEAR     45  44  97 CALM      30.21S FOG
BROOKINGS      CLEAR     49  48  97 CALM      30.21F
SISSETON         N/A     47  43  86 NW5       30.21S
$$

SDZ017-020-022-023-036>040-048>070-260900-
SOUTHEAST SOUTH DAKOTA

CITY           SKY/WX    TMP DP  RH WIND       PRES   REMARKS
SIOUX FALLS    CLOUDY    55  53  93 NE5       30.19F
HURON          CLEAR     49  48  97 CALM      30.21F
CHAMBERLAIN    CLEAR     50  47  88 E5        30.21R
MITCHELL       MOCLDY    55  51  86 E3        30.20F
YANKTON        MOCLDY    55  50  83 E9        30.19S
$$

ABBREVIATIONS USED IN REMARKS
   TC - TEMPERATURE IN CELSIUS
  WCI - WIND CHILL INDEX
   HX - HEAT INDEX
  VSB - VISIBILITY





USA.gov is the U.S. government's official web portal to all federal, state and local government web resources and services.